• In Uzbekistan
  • List of Countries
  • For 7 days
  • Water Temperature
  • Satellite Maps
  • Weather Map
  • Weather Widgets
  • user-avatar
    Login

    Hourly Weather Buritama

    Today, 15 December, Friday

    Time Temperature Precipitation Wind Pressure Humidity
    00:00 +26°C° 0 mm 1 mps 725 mmHg 71%
    01:00 +26°C° 0 mm 2 mps 725 mmHg 74%
    02:00 +25°C° 0 mm 2 mps 724 mmHg 77%
    03:00 +25°C° 0 mm 2 mps 724 mmHg 79%
    04:00 +25°C° 0 mm 2 mps 724 mmHg 82%
    05:00 +24°C° 0 mm 2 mps 725 mmHg 84%
    06:00 +24°C° 0 mm 2 mps 725 mmHg 87%
    07:00 +26°C° 0 mm 2 mps 725 mmHg 81%
    08:00 +27°C° 0 mm 3 mps 725 mmHg 75%
    09:00 +29°C° 0 mm 3 mps 726 mmHg 68%
    10:00 +30°C° 0 mm 3 mps 726 mmHg 64%
    11:00 +31°C° 0 mm 3 mps 725 mmHg 60%
    12:00 +32°C° 0 mm 2 mps 725 mmHg 56%
    13:00 +32°C° 0.2 mm 2 mps 725 mmHg 56%
    14:00 +34°C° 0.2 mm 2 mps 724 mmHg 55%
    15:00 +33°C° 0.2 mm 1 mps 724 mmHg 54%
    16:00 +32°C° 0.3 mm 2 mps 723 mmHg 58%
    17:00 +31°C° 0.3 mm 2 mps 723 mmHg 63%
    18:00 +31°C° 0.3 mm 2 mps 723 mmHg 67%
    19:00 +29°C° 0 mm 2 mps 723 mmHg 71%
    20:00 +28°C° 0 mm 2 mps 723 mmHg 75%
    21:00 +27°C° 0 mm 2 mps 723 mmHg 78%
    22:00 +26°C° 0 mm 2 mps 723 mmHg 79%
    23:00 +26°C° 0 mm 2 mps 723 mmHg 80%

    Tomorrow, 16 December, Saturday

    Time Temperature Precipitation Wind Pressure Humidity
    00:00 +26°C° 0 mm 2 mps 724 mmHg 81%
    01:00 +25°C° 0 mm 2 mps 723 mmHg 82%
    02:00 +25°C° 0 mm 2 mps 723 mmHg 83%
    03:00 +25°C° 0 mm 2 mps 723 mmHg 84%
    04:00 +25°C° 0 mm 2 mps 723 mmHg 86%
    05:00 +24°C° 0 mm 2 mps 724 mmHg 88%
    06:00 +24°C° 0 mm 2 mps 724 mmHg 89%
    07:00 +26°C° 0 mm 2 mps 725 mmHg 83%
    08:00 +28°C° 0 mm 3 mps 725 mmHg 77%
    09:00 +29°C° 0 mm 3 mps 726 mmHg 71%
    10:00 +30°C° 0.1 mm 3 mps 726 mmHg 66%
    11:00 +31°C° 0.1 mm 3 mps 725 mmHg 62%
    12:00 +33°C° 0.1 mm 3 mps 725 mmHg 57%
    13:00 +34°C° 0.2 mm 2 mps 724 mmHg 56%
    14:00 +34°C° 0.2 mm 2 mps 724 mmHg 55%
    15:00 +34°C° 0.2 mm 2 mps 723 mmHg 54%
    16:00 +32°C° 0.3 mm 2 mps 723 mmHg 59%
    17:00 +32°C° 0.3 mm 2 mps 723 mmHg 63%
    18:00 +31°C° 0.3 mm 2 mps 722 mmHg 67%
    19:00 +30°C° 0 mm 2 mps 723 mmHg 70%
    20:00 +29°C° 0 mm 2 mps 723 mmHg 74%
    21:00 +27°C° 0 mm 2 mps 723 mmHg 77%
    22:00 +27°C° 0 mm 2 mps 723 mmHg 79%
    23:00 +26°C° 0 mm 2 mps 724 mmHg 81%

    Day after tomorrow, 17 December, Sunday

    Time Temperature Precipitation Wind Pressure Humidity
    00:00 +26°C° 0 mm 2 mps 724 mmHg 83%
    01:00 +26°C° 0 mm 2 mps 724 mmHg 84%
    02:00 +25°C° 0 mm 3 mps 723 mmHg 85%
    03:00 +25°C° 0 mm 3 mps 723 mmHg 87%
    04:00 +25°C° 0 mm 3 mps 724 mmHg 87%
    05:00 +24°C° 0 mm 3 mps 724 mmHg 88%
    06:00 +24°C° 0 mm 3 mps 724 mmHg 88%
    07:00 +26°C° 0 mm 3 mps 725 mmHg 81%
    08:00 +28°C° 0 mm 4 mps 726 mmHg 74%
    09:00 +30°C° 0 mm 4 mps 727 mmHg 67%
    10:00 +32°C° 0.1 mm 4 mps 727 mmHg 62%
    11:00 +33°C° 0.1 mm 4 mps 727 mmHg 58%
    12:00 +34°C° 0.1 mm 4 mps 727 mmHg 53%
    13:00 +34°C° 0.2 mm 3 mps 726 mmHg 54%
    14:00 +34°C° 0.2 mm 3 mps 726 mmHg 55%
    15:00 +34°C° 0.2 mm 2 mps 725 mmHg 57%
    16:00 +32°C° 0.6 mm 2 mps 725 mmHg 60%
    17:00 +31°C° 0.6 mm 1 mps 725 mmHg 64%
    18:00 +31°C° 0.6 mm 1 mps 725 mmHg 68%
    19:00 +29°C° 1.1 mm 1 mps 725 mmHg 73%
    20:00 +28°C° 1.1 mm 2 mps 726 mmHg 79%
    21:00 +26°C° 1.1 mm 3 mps 726 mmHg 84%
    22:00 +26°C° 0 mm 3 mps 726 mmHg 85%
    23:00 +25°C° 0 mm 3 mps 726 mmHg 87%

    18 December, Monday

    Time Temperature Precipitation Wind Pressure Humidity
    00:00 +25°C° 0 mm 3 mps 726 mmHg 88%
    01:00 +25°C° 0 mm 2 mps 725 mmHg 89%
    02:00 +24°C° 0 mm 2 mps 725 mmHg 89%
    03:00 +24°C° 0 mm 2 mps 725 mmHg 90%
    04:00 +24°C° 0 mm 2 mps 725 mmHg 90%
    05:00 +24°C° 0 mm 2 mps 725 mmHg 91%
    06:00 +24°C° 0 mm 2 mps 726 mmHg 91%
    07:00 +25°C° 0 mm 3 mps 726 mmHg 83%
    08:00 +27°C° 0 mm 3 mps 727 mmHg 76%
    09:00 +29°C° 0 mm 4 mps 727 mmHg 68%
    10:00 +32°C° 0 mm 4 mps 727 mmHg 62%
    11:00 +33°C° 0 mm 3 mps 727 mmHg 57%
    12:00 +34°C° 0 mm 3 mps 727 mmHg 51%
    13:00 +34°C° 0 mm 3 mps 726 mmHg 52%
    14:00 +34°C° 0 mm 2 mps 726 mmHg 52%
    15:00 +34°C° 0 mm 2 mps 725 mmHg 53%
    16:00 +32°C° 0 mm 1 mps 725 mmHg 56%
    17:00 +32°C° 0 mm 1 mps 725 mmHg 59%
    18:00 +31°C° 0 mm 1 mps 725 mmHg 61%
    19:00 +30°C° 0 mm 1 mps 725 mmHg 63%
    20:00 +29°C° 0 mm 1 mps 726 mmHg 64%
    21:00 +28°C° 0 mm 2 mps 726 mmHg 65%
    22:00 +28°C° 0 mm 2 mps 726 mmHg 67%
    23:00 +27°C° 0 mm 2 mps 726 mmHg 68%

    19 December, Tuesday

    Time Temperature Precipitation Wind Pressure Humidity
    00:00 +27°C° 0 mm 2 mps 726 mmHg 70%
    01:00 +26°C° 0 mm 2 mps 726 mmHg 72%
    02:00 +26°C° 0 mm 3 mps 726 mmHg 75%
    03:00 +25°C° 0 mm 3 mps 726 mmHg 77%
    04:00 +25°C° 0 mm 3 mps 726 mmHg 79%
    05:00 +25°C° 0 mm 3 mps 726 mmHg 81%
    06:00 +24°C° 0 mm 3 mps 727 mmHg 83%
    07:00 +26°C° 0 mm 3 mps 727 mmHg 78%
    08:00 +28°C° 0 mm 3 mps 728 mmHg 72%
    09:00 +29°C° 0 mm 4 mps 728 mmHg 67%
    10:00 +32°C° 0 mm 4 mps 728 mmHg 61%
    11:00 +33°C° 0 mm 3 mps 727 mmHg 55%
    12:00 +35°C° 0 mm 3 mps 727 mmHg 50%
    13:00 +35°C° 0 mm 3 mps 726 mmHg 49%
    14:00 +35°C° 0 mm 3 mps 726 mmHg 48%
    15:00 +35°C° 0 mm 2 mps 725 mmHg 48%
    16:00 +35°C° 0 mm 2 mps 725 mmHg 51%
    17:00 +34°C° 0 mm 2 mps 724 mmHg 55%
    18:00 +32°C° 0 mm 2 mps 724 mmHg 58%
    19:00 +31°C° 0 mm 2 mps 725 mmHg 60%
    20:00 +30°C° 0 mm 2 mps 725 mmHg 62%
    21:00 +29°C° 0 mm 2 mps 725 mmHg 64%
    22:00 +28°C° 0 mm 2 mps 725 mmHg 66%
    23:00 +28°C° 0 mm 2 mps 725 mmHg 68%

    20 December, Wednesday

    Time Temperature Precipitation Wind Pressure Humidity
    00:00 +27°C° 0 mm 2 mps 725 mmHg 70%
    01:00 +27°C° 0.4 mm 2 mps 725 mmHg 74%
    02:00 +26°C° 0.4 mm 3 mps 725 mmHg 78%
    03:00 +25°C° 0.4 mm 3 mps 724 mmHg 82%
    04:00 +25°C° 0.1 mm 3 mps 725 mmHg 84%
    05:00 +25°C° 0.1 mm 3 mps 725 mmHg 86%
    06:00 +24°C° 0.1 mm 3 mps 726 mmHg 87%
    07:00 +26°C° 0.1 mm 3 mps 726 mmHg 82%
    08:00 +27°C° 0.1 mm 3 mps 726 mmHg 77%
    09:00 +29°C° 0.1 mm 3 mps 727 mmHg 72%
    10:00 +30°C° 0.3 mm 4 mps 726 mmHg 68%
    11:00 +32°C° 0.3 mm 4 mps 726 mmHg 64%
    12:00 +33°C° 0.3 mm 4 mps 726 mmHg 59%
    13:00 +33°C° 0.2 mm 4 mps 725 mmHg 58%
    14:00 +34°C° 0.2 mm 4 mps 724 mmHg 56%
    15:00 +34°C° 0.2 mm 4 mps 724 mmHg 55%
    16:00 +33°C° 0 mm 4 mps 723 mmHg 58%
    17:00 +33°C° 0 mm 3 mps 723 mmHg 62%
    18:00 +31°C° 0 mm 2 mps 723 mmHg 65%
    19:00 +30°C° 0 mm 2 mps 723 mmHg 68%
    20:00 +29°C° 0 mm 2 mps 723 mmHg 70%
    21:00 +28°C° 0 mm 2 mps 723 mmHg 72%
    22:00 +27°C° 0 mm 2 mps 723 mmHg 73%
    23:00 +27°C° 0 mm 2 mps 723 mmHg 74%
    Show more